UPMSat 2
1 46276U 20061E   25284.11510829  .12115553  24945-5  13983-3 0  9991
2 46276  97.2106   5.1352 0012001 257.8540 102.1421 16.49625583285008
SALSAT
1 46495U 20068K   25292.22504609  .00018450  00000-0  74045-3 0  9993
2 46495  97.8745 276.6245 0012966  69.3885 290.8741 15.24963280278575
CSS (TIANHE-1)
1 48274U 21035A   25292.28748711  .00050741  00000-0  60508-3 0  9993
2 48274  41.4674 347.5472 0011403 242.6037 117.3642 15.60145536255527
TUBIN
1 48900U 21059X   25292.32100595  .00179976  00000-0  10359-2 0  9992
2 48900  97.6729 113.7016 0001701 107.6363 252.5089 15.78203723240675
LEDSAT
1 49069U 21073D   25287.95720868  .11134366  25314-5  40586-3 0  9991
2 49069  97.3489  17.4861 0013151 272.2565  87.7231 16.42992651231488
CUTE
1 49263U 21088D   25292.25115311  .00040972  00000-0  63313-3 0  9993
2 49263  97.4405  12.8422 0007010 110.7875 249.4130 15.53969679224822
TeikyoSat 4
1 49396U 21102B   25292.27386804  .00004067  00000-0  26582-3 0  9998
2 49396  97.3977 325.9089 0013611  47.7365 312.5016 15.08272802216399
Z-Sat
1 49399U 21102E   25292.25888364  .00010388  00000-0  54676-3 0  9995
2 49399  97.3668 329.8448 0017788  12.7559 347.4120 15.15678423216915
KOSEN 1
1 49402U 21102H   25292.23506406  .00016267  00000-0  70541-3 0  9993
2 49402  97.3563 334.2835 0014403 344.2626  15.8161 15.22343532217306
HO-113
1 50466U 21131B   25292.28354098  .00001177  00000-0  37997-3 0  9992
2 50466  98.5073  20.9795 0005278 101.1976 258.9806 14.40999627200410
SNUGLITE 2
1 52899U 22065F   25292.31949415  .00002980  00000-0  58249-3 0  9994
2 52899  98.1877  73.1840 0008523  64.6315 295.5769 14.63605329175758
UmKA 1 (RS40S)
1 57172U 23091G   25292.21450499  .00014124  00000-0  71416-3 0  9995
2 57172  97.5432 346.9335 0012567 234.4630 125.5432 15.17090180127420
CubeBel-2 (EU11S)
1 57175U 23091K   25292.25612783  .00024553  00000-0  10695-2 0  9996
2 57175  97.5428 349.0106 0010245 238.3682 121.6555 15.22154940127568
ENSO
1 58470U 23185J   25292.29995291  .00533354  00000-0  19520-2 0  9991
2 58470  97.3539  13.4872 0005973 277.8479  82.2114 15.87067879105647
SONATE-2
1 59112U 24043Q   25292.31186685  .00048039  00000-0  11486-2 0  9995
2 59112  97.5294  66.7083 0009726   5.6924 354.4431 15.41288028 90581
MO-122
1 60209U 24125G   25292.21970867  .00049947  00000-0  11638-2 0  9995
2 60209  97.2606 142.7074 0017330  28.2918 331.9267 15.41947309 72191
GRBBeta
1 60237U 24128C   25292.24702049  .00008160  00000-0  58162-3 0  9993
2 60237  61.9923 340.0734 0057026  85.0093 275.7506 15.03988783 69993
Curium One
1 60242U 24128H   25292.29640974  .00016080  00000-0  10276-2 0  9995
2 60242  61.9817 335.9717 0056863  81.4471 279.3060 15.07484589 70078
ROBUSTA-3A
1 60243U 24128J   25292.27782577  .00015910  00000-0  10339-2 0  9991
2 60243  61.9892 337.3439 0056488  79.0395 281.7046 15.06897685 70053
CatSat
1 60246U 24125J   25292.21772826  .00054699  00000-0  15330-2 0  9994
2 60246  97.2420 140.3559 0037244 346.8477  13.1792 15.35710207 70146
HYPERVIEW-1G (RS66S)
1 61772U 24199AP  25292.27426256  .00062817  00000-0  14401-2 0  9998
2 61772  97.3292 161.2325 0013918  79.7396 280.5420 15.42431215 97207
AO-123
1 61781U 24199AY  25292.30030314  .00017770  00000-0  60251-3 0  9991
2 61781  97.3322 158.3873 0017092  89.8195 270.5004 15.30457753 97010
ZIMSAT 2
1 61783U 24199BA  25292.30986971  .00159235  00000-0  23122-2 0  9990
2 61783  97.3226 163.3738 0012568  74.0847 286.1791 15.55168130100504
HADES-R (SO-124)
1 62690U 25009CK  25292.22033504  .00153054  00000-0  33932-2 0  9998
2 62690  97.3979  13.4379 0001917 310.9210  49.1871 15.43159205 42337
HYDRA-T
1 62692U 25009CM  25292.17181227  .00159634  00000-0  34591-2 0  9992
2 62692  97.3979  13.5022 0002052 296.5193  63.5844 15.43814206 42334
JINJUSat 1B
1 63210U 25052A   25292.27487773  .00031115  00000-0  12735-2 0  9992
2 63210  97.4228 184.8642 0002760 180.4733 179.6502 15.24257024 33288
NUSHSAT 1
1 63211U 25052B   25292.23528073  .00036735  00000-0  14716-2 0  9992
2 63211  97.4217 184.8863 0002428 184.4743 175.6473 15.24941351 33284
TEVEL2-4
1 63213U 25052D   25292.28102587  .00033591  00000-0  13667-2 0  9998
2 63213  97.4133 184.5902 0001116 191.1082 169.0131 15.24442145 33283
TEVEL2-5
1 63214U 25052E   25292.21867975  .00033359  00000-0  13594-2 0  9992
2 63214  97.4133 184.5214 0001116 192.0121 168.1090 15.24389867 33278
TEVEL2-6
1 63215U 25052F   25292.28995484  .00033311  00000-0  13591-2 0  9992
2 63215  97.4136 184.5827 0001105 192.6606 167.4604 15.24349742 33286
TEVEL2-1
1 63217U 25052H   25292.19059671  .00033632  00000-0  13839-2 0  9994
2 63217  97.4108 184.3390 0000828 248.4123 111.7026 15.24061743 33265
TEVEL2-3
1 63218U 25052J   25292.25606872  .00034986  00000-0  14384-2 0  9992
2 63218  97.4110 184.4069 0000860 250.3370 109.7775 15.24080829 33270
TEVEL2-2
1 63219U 25052K   25292.25702390  .00033843  00000-0  13924-2 0  9995
2 63219  97.4110 184.4044 0000787 245.5601 114.5554 15.24064166 33270
TEVEL2-9
1 63237U 25052AD  25292.23473041  .00032212  00000-0  13797-2 0  9998
2 63237  97.4175 184.1608 0005016 280.2160  79.8511 15.22703346 33241
TEVEL2-7
1 63238U 25052AE  25292.24396349  .00032853  00000-0  14116-2 0  9992
2 63238  97.4178 184.1535 0005102 280.3545  79.7116 15.22591164 33241
TEVEL2-8
1 63239U 25052AF  25292.24862296  .00032472  00000-0  13965-2 0  9990
2 63239  97.4175 184.1454 0005182 280.4623  79.6029 15.22561976 33245
HYDRA-W
1 63490U 25052BL  25291.94398156  .00092356  00000-0  28818-2 0  9994
2 63490  97.4110 185.3045 0005647 270.8354  89.2241 15.32834193 33307
HADES-ICM (SO-125)
1 63492U 25052BN  25292.21245394  .00090193  00000-0  29095-2 0  9997
2 63492  97.4116 185.4222 0006247 276.0557  83.9973 15.31773456 33332
